| time (UTC) | temp C | wind direction | speed KPH | gust KPH | rain 1hr cm | rain 24hr cm | rain mn cm | humidity % | barometer mb |
| 20260505130204 | 20 | 223 | 6.4 | 12.9 | 0.00 | 0.00 | 0.00 | 71 | 1019.0 |
| 20260505124701 | 19 | 175 | 6.4 | 8.0 | 0.00 | 0.00 | 0.00 | 73 | 1019.0 |
| 20260505124202 | 18 | 184 | 4.8 | 9.7 | 0.00 | 0.00 | 0.00 | 74 | 1019.0 |
| 20260505123703 | 18 | 188 | 6.4 | 8.0 | 0.00 | 0.00 | 0.00 | 75 | 1019.0 |
| 20260505123202 | 18 | 202 | 4.8 | 8.0 | 0.00 | 0.00 | 0.00 | 75 | 1019.0 |
| 20260505122702 | 18 | 168 | 6.4 | 11.3 | 0.00 | 0.00 | 0.00 | 76 | 1019.0 |
| 20260505122204 | 17 | 174 | 1.6 | 4.8 | 0.00 | 0.00 | 0.00 | 77 | 1019.0 |
| 20260505121702 | 17 | 164 | 6.4 | 11.3 | 0.00 | 0.00 | 0.00 | 77 | 1019.0 |
| 20260505121204 | 17 | 191 | 4.8 | 9.7 | 0.00 | 0.00 | 0.00 | 78 | 1019.0 |
| 20260505120702 | 17 | 153 | 4.8 | 6.4 | 0.00 | 0.00 | 0.00 | 79 | 1019.0 |
| 20260505120204 | 16 | 161 | 3.2 | 4.8 | 0.00 | 0.00 | 0.00 | 80 | 1019.0 |
| 20260505115701 | 16 | 198 | 4.8 | 6.4 | 0.00 | 0.00 | 0.00 | 80 | 1019.0 |
| 20260505115202 | 16 | 207 | 4.8 | 8.0 | 0.00 | 0.00 | 0.00 | 82 | 1019.0 |
| 20260505114701 | 16 | 201 | 3.2 | 6.4 | 0.00 | 0.00 | 0.00 | 82 | 1018.0 |
| 20260505114200 | 15 | 196 | 3.2 | 4.8 | 0.00 | 0.00 | 0.00 | 83 | 1018.0 |
| 20260505113701 | 15 | 211 | 6.4 | 8.0 | 0.00 | 0.00 | 0.00 | 84 | 1018.0 |
| 20260505113202 | 15 | 176 | 3.2 | 4.8 | 0.00 | 0.00 | 0.00 | 85 | 1018.0 |
| 20260505112702 | 14 | 194 | 3.2 | 4.8 | 0.00 | 0.00 | 0.00 | 87 | 1018.0 |
| 20260505112202 | 13 | 194 | 4.8 | 6.4 | 0.00 | 0.00 | 0.00 | 90 | 1018.0 |
| 20260505111701 | 13 | 164 | 0.0 | 3.2 | 0.00 | 0.00 | 0.00 | 94 | 1018.0 |
| 20260505111203 | 12 | 187 | 3.2 | 6.4 | 0.00 | 0.00 | 0.00 | 96 | 1018.0 |
| 20260505110703 | 12 | 176 | 3.2 | 6.4 | 0.00 | 0.00 | 0.00 | 97 | 1018.0 |
| 20260505110204 | 11 | 171 | 1.6 | 4.8 | 0.00 | 0.00 | 0.00 | 98 | 1018.0 |
| 20260505102202 | 10 | 0 | 0.0 | 0.0 | 0.00 | 0.00 | 0.00 | 98 | 1018.0 |
| 20260505101701 | 10 | 0 | 0.0 | 0.0 | 0.00 | 0.00 | 0.00 | 98 | 1017.0 |
| 20260505101202 | 10 | 0 | 0.0 | 0.0 | 0.00 | 0.00 | 0.00 | 97 | 1017.0 |
| 20260505100702 | 10 | 0 | 0.0 | 0.0 | 0.00 | 0.00 | 0.00 | 97 | 1017.0 |
| 20260505100202 | 10 | 0 | 0.0 | 0.0 | 0.00 | 0.00 | 0.00 | 97 | 1017.0 |
| 20260505095702 | 10 | 0 | 0.0 | 0.0 | 0.00 | 0.00 | 0.00 | 97 | 1017.0 |
| 20260505095201 | 10 | 0 | 0.0 | 0.0 | 0.00 | 0.00 | 0.00 | 97 | 1017.0 |
| 20260505094701 | 10 | 0 | 0.0 | 0.0 | 0.00 | 0.00 | 0.00 | 97 | 1017.0 |
| 20260505094201 | 10 | 0 | 0.0 | 0.0 | 0.00 | 0.00 | 0.00 | 97 | 1017.0 |
| 20260505093659 | 10 | 0 | 0.0 | 0.0 | 0.00 | 0.00 | 0.00 | 97 | 1017.0 |
| 20260505093201 | 10 | 0 | 0.0 | 0.0 | 0.00 | 0.00 | 0.00 | 97 | 1017.0 |
| 20260505092701 | 10 | 0 | 0.0 | 0.0 | 0.00 | 0.00 | 0.00 | 97 | 1017.0 |
| 20260505092201 | 10 | 0 | 0.0 | 0.0 | 0.00 | 0.00 | 0.00 | 96 | 1017.0 |
| 20260505091701 | 10 | 0 | 0.0 | 0.0 | 0.00 | 0.00 | 0.00 | 96 | 1017.0 |
| 20260505091201 | 10 | 0 | 0.0 | 0.0 | 0.00 | 0.00 | 0.00 | 96 | 1017.0 |
| 20260505090703 | 11 | 0 | 0.0 | 0.0 | 0.00 | 0.00 | 0.00 | 96 | 1017.0 |
| 20260505090159 | 11 | 0 | 0.0 | 0.0 | 0.00 | 0.00 | 0.00 | 96 | 1017.0 |
| 20260505085701 | 11 | 0 | 0.0 | 0.0 | 0.00 | 0.00 | 0.00 | 96 | 1017.0 |
| 20260505085201 | 11 | 0 | 0.0 | 0.0 | 0.00 | 0.00 | 0.00 | 95 | 1017.0 |
| 20260505084659 | 11 | 0 | 0.0 | 0.0 | 0.00 | 0.00 | 0.00 | 95 | 1017.0 |
| 20260505084204 | 11 | 0 | 0.0 | 0.0 | 0.00 | 0.00 | 0.00 | 95 | 1017.0 |
| 20260505083700 | 11 | 0 | 0.0 | 0.0 | 0.00 | 0.00 | 0.00 | 95 | 1017.0 |
| 20260505083201 | 11 | 0 | 0.0 | 0.0 | 0.00 | 0.00 | 0.00 | 94 | 1017.0 |
| 20260505082701 | 11 | 0 | 0.0 | 0.0 | 0.00 | 0.00 | 0.00 | 94 | 1017.0 |
| 20260505082202 | 11 | 0 | 0.0 | 0.0 | 0.00 | 0.00 | 0.00 | 94 | 1017.0 |
| 20260505081701 | 11 | 0 | 0.0 | 0.0 | 0.00 | 0.00 | 0.00 | 94 | 1017.0 |
| 20260505081201 | 11 | 0 | 0.0 | 0.0 | 0.00 | 0.00 | 0.00 | 94 | 1017.0 |
| 20260505080701 | 11 | 0 | 0.0 | 0.0 | 0.00 | 0.00 | 0.00 | 93 | 1017.0 |
| 20260505080201 | 12 | 0 | 0.0 | 0.0 | 0.00 | 0.00 | 0.00 | 93 | 1017.0 |
| 20260505075701 | 12 | 0 | 0.0 | 0.0 | 0.00 | 0.00 | 0.00 | 93 | 1017.0 |
| 20260505075201 | 12 | 0 | 0.0 | 0.0 | 0.00 | 0.00 | 0.00 | 92 | 1017.0 |
| 20260505074705 | 12 | 191 | 0.0 | 1.6 | 0.00 | 0.00 | 0.00 | 93 | 1017.0 |
| 20260505074201 | 12 | 0 | 0.0 | 0.0 | 0.00 | 0.00 | 0.00 | 92 | 1017.0 |
| 20260505073702 | 12 | 221 | 0.0 | 1.6 | 0.00 | 0.00 | 0.00 | 92 | 1016.0 |
| 20260505073201 | 12 | 0 | 0.0 | 0.0 | 0.00 | 0.00 | 0.00 | 92 | 1016.0 |
| 20260505072701 | 12 | 0 | 0.0 | 0.0 | 0.00 | 0.00 | 0.00 | 92 | 1016.0 |
| 20260505072202 | 12 | 0 | 0.0 | 0.0 | 0.00 | 0.00 | 0.00 | 93 | 1016.0 |
| 20260505071701 | 12 | 227 | 0.0 | 1.6 | 0.00 | 0.00 | 0.00 | 93 | 1016.0 |
| 20260505071200 | 12 | 0 | 0.0 | 0.0 | 0.00 | 0.00 | 0.00 | 92 | 1016.0 |
| 20260505070701 | 12 | 207 | 0.0 | 1.6 | 0.00 | 0.00 | 0.00 | 92 | 1016.0 |
| 20260505070200 | 12 | 0 | 0.0 | 0.0 | 0.00 | 0.00 | 0.00 | 92 | 1016.0 |
| 20260505065659 | 12 | 0 | 0.0 | 0.0 | 0.00 | 0.00 | 0.00 | 91 | 1016.0 |
| 20260505065200 | 12 | 0 | 0.0 | 0.0 | 0.00 | 0.00 | 0.00 | 91 | 1016.0 |
| 20260505064701 | 12 | 0 | 0.0 | 0.0 | 0.00 | 0.00 | 0.00 | 91 | 1016.0 |
| 20260505064159 | 12 | 206 | 0.0 | 3.2 | 0.00 | 0.00 | 0.00 | 91 | 1016.0 |
| 20260505063701 | 12 | 287 | 0.0 | 1.6 | 0.00 | 0.00 | 0.00 | 90 | 1016.0 |
| 20260505063200 | 12 | 0 | 0.0 | 0.0 | 0.00 | 0.00 | 0.00 | 89 | 1016.0 |
| 20260505062701 | 12 | 0 | 0.0 | 0.0 | 0.00 | 0.00 | 0.00 | 89 | 1016.0 |
| 20260505062159 | 12 | 0 | 0.0 | 0.0 | 0.00 | 0.00 | 0.00 | 88 | 1016.0 |
| 20260505061701 | 12 | 0 | 0.0 | 0.0 | 0.00 | 0.00 | 0.00 | 88 | 1017.0 |
| 20260505061201 | 13 | 0 | 0.0 | 0.0 | 0.00 | 0.00 | 0.00 | 87 | 1017.0 |
| 20260505060704 | 13 | 0 | 0.0 | 0.0 | 0.00 | 0.00 | 0.00 | 87 | 1017.0 |
| 20260505060200 | 13 | 0 | 0.0 | 0.0 | 0.00 | 0.00 | 0.00 | 87 | 1017.0 |
| 20260505055700 | 12 | 210 | 1.6 | 3.2 | 0.00 | 0.00 | 0.00 | 88 | 1017.0 |
| 20260505055159 | 12 | 201 | 1.6 | 4.8 | 0.00 | 0.00 | 0.00 | 89 | 1017.0 |
| 20260505054700 | 12 | 0 | 0.0 | 0.0 | 0.00 | 0.00 | 0.00 | 89 | 1017.0 |
| 20260505054200 | 12 | 0 | 0.0 | 0.0 | 0.00 | 0.00 | 0.00 | 89 | 1017.0 |
| 20260505053701 | 12 | 0 | 0.0 | 0.0 | 0.00 | 0.00 | 0.00 | 89 | 1017.0 |
| 20260505053159 | 12 | 0 | 0.0 | 0.0 | 0.00 | 0.00 | 0.00 | 89 | 1017.0 |
| 20260505052659 | 12 | 0 | 0.0 | 0.0 | 0.00 | 0.00 | 0.00 | 89 | 1017.0 |
| 20260505052200 | 12 | 0 | 0.0 | 0.0 | 0.00 | 0.00 | 0.00 | 89 | 1017.0 |
| 20260505051700 | 12 | 0 | 0.0 | 0.0 | 0.00 | 0.00 | 0.00 | 89 | 1017.0 |
| 20260505051159 | 12 | 0 | 0.0 | 0.0 | 0.00 | 0.00 | 0.00 | 89 | 1017.0 |
| 20260505050659 | 12 | 0 | 0.0 | 0.0 | 0.00 | 0.00 | 0.00 | 89 | 1017.0 |
| 20260505050201 | 12 | 0 | 0.0 | 0.0 | 0.00 | 0.00 | 0.00 | 88 | 1017.0 |
| 20260505041700 | 13 | 0 | 0.0 | 0.0 | 0.00 | 0.00 | 0.00 | 83 | 1017.0 |
| 20260505041159 | 14 | 0 | 0.0 | 0.0 | 0.00 | 0.00 | 0.00 | 82 | 1017.0 |
| 20260505040659 | 14 | 0 | 0.0 | 0.0 | 0.00 | 0.00 | 0.00 | 81 | 1017.0 |
| 20260505040159 | 15 | 0 | 0.0 | 0.0 | 0.00 | 0.00 | 0.00 | 80 | 1017.0 |
| 20260505035659 | 15 | 0 | 0.0 | 0.0 | 0.00 | 0.00 | 0.00 | 79 | 1017.0 |
| 20260505035159 | 15 | 213 | 0.0 | 1.6 | 0.00 | 0.00 | 0.00 | 78 | 1017.0 |
| 20260505034659 | 15 | 0 | 0.0 | 0.0 | 0.00 | 0.00 | 0.00 | 77 | 1017.0 |
| 20260505034201 | 16 | 0 | 0.0 | 0.0 | 0.00 | 0.00 | 0.00 | 76 | 1017.0 |
| 20260505033659 | 16 | 0 | 0.0 | 0.0 | 0.00 | 0.00 | 0.00 | 76 | 1017.0 |
| 20260505033201 | 16 | 197 | 0.0 | 3.2 | 0.00 | 0.00 | 0.00 | 75 | 1017.0 |
| 20260505032659 | 16 | 194 | 0.0 | 0.0 | 0.00 | 0.00 | 0.00 | 74 | 1017.0 |
| 20260505032200 | 16 | 195 | 1.6 | 3.2 | 0.00 | 0.00 | 0.00 | 74 | 1017.0 |
| 20260505031700 | 16 | 198 | 3.2 | 4.8 | 0.00 | 0.00 | 0.00 | 74 | 1017.0 |
| 20260505031159 | 16 | 207 | 3.2 | 4.8 | 0.00 | 0.00 | 0.00 | 73 | 1017.0 |
| 20260505030700 | 16 | 185 | 1.6 | 3.2 | 0.00 | 0.00 | 0.00 | 73 | 1017.0 |
| 20260505030200 | 16 | 191 | 3.2 | 4.8 | 0.00 | 0.00 | 0.00 | 72 | 1017.0 |
| 20260505025701 | 17 | 199 | 3.2 | 6.4 | 0.00 | 0.00 | 0.00 | 72 | 1017.0 |
| 20260505025159 | 17 | 195 | 3.2 | 6.4 | 0.00 | 0.00 | 0.00 | 71 | 1017.0 |
| 20260505024659 | 17 | 213 | 8.0 | 11.3 | 0.00 | 0.00 | 0.00 | 71 | 1017.0 |
| 20260505024200 | 17 | 213 | 4.8 | 8.0 | 0.00 | 0.00 | 0.00 | 71 | 1017.0 |
| 20260505023700 | 17 | 211 | 3.2 | 4.8 | 0.00 | 0.00 | 0.00 | 70 | 1017.0 |
| 20260505023159 | 17 | 208 | 3.2 | 9.7 | 0.00 | 0.00 | 0.00 | 70 | 1017.0 |
| 20260505022659 | 17 | 192 | 6.4 | 8.0 | 0.00 | 0.00 | 0.00 | 69 | 1017.0 |
| 20260505022159 | 17 | 196 | 8.0 | 14.5 | 0.00 | 0.00 | 0.00 | 69 | 1017.0 |
| 20260505021700 | 17 | 206 | 3.2 | 8.0 | 0.00 | 0.00 | 0.00 | 69 | 1017.0 |
| 20260505021201 | 17 | 189 | 8.0 | 12.9 | 0.00 | 0.00 | 0.00 | 68 | 1017.0 |
| 20260505020700 | 17 | 200 | 9.7 | 12.9 | 0.00 | 0.00 | 0.00 | 68 | 1017.0 |
| 20260505020203 | 17 | 185 | 6.4 | 11.3 | 0.00 | 0.00 | 0.00 | 68 | 1017.0 |
| 20260505015659 | 17 | 188 | 8.0 | 11.3 | 0.00 | 0.00 | 0.00 | 67 | 1017.0 |
| 20260505015159 | 17 | 186 | 6.4 | 9.7 | 0.00 | 0.00 | 0.00 | 67 | 1017.0 |
| 20260505014659 | 18 | 155 | 4.8 | 6.4 | 0.00 | 0.00 | 0.00 | 67 | 1017.0 |
| 20260505014200 | 18 | 188 | 6.4 | 8.0 | 0.00 | 0.00 | 0.00 | 67 | 1017.0 |
| 20260505013659 | 18 | 170 | 11.3 | 16.1 | 0.00 | 0.00 | 0.00 | 67 | 1017.0 |
| 20260505013159 | 18 | 205 | 6.4 | 11.3 | 0.00 | 0.00 | 0.00 | 67 | 1017.0 |
| 20260505012659 | 18 | 191 | 6.4 | 9.7 | 0.00 | 0.00 | 0.00 | 67 | 1017.0 |
| 20260505012159 | 18 | 183 | 9.7 | 14.5 | 0.00 | 0.00 | 0.00 | 66 | 1017.0 |
| 20260505011701 | 18 | 204 | 6.4 | 9.7 | 0.00 | 0.00 | 0.00 | 66 | 1016.0 |
| 20260505011200 | 18 | 177 | 8.0 | 12.9 | 0.00 | 0.00 | 0.00 | 65 | 1016.0 |
| 20260505010659 | 18 | 184 | 9.7 | 12.9 | 0.00 | 0.00 | 0.00 | 65 | 1016.0 |
| 20260505010200 | 18 | 182 | 8.0 | 11.3 | 0.00 | 0.00 | 0.00 | 65 | 1016.0 |
| 20260505005659 | 18 | 192 | 11.3 | 16.1 | 0.00 | 0.00 | 0.00 | 64 | 1016.0 |
| 20260505005159 | 18 | 202 | 9.7 | 17.7 | 0.00 | 0.00 | 0.00 | 64 | 1016.0 |
| 20260505004700 | 18 | 175 | 9.7 | 14.5 | 0.00 | 0.00 | 0.00 | 64 | 1016.0 |
| 20260505004159 | 18 | 186 | 11.3 | 22.5 | 0.00 | 0.00 | 0.00 | 64 | 1016.0 |
| 20260505003659 | 18 | 190 | 9.7 | 14.5 | 0.00 | 0.00 | 0.00 | 63 | 1016.0 |
| 20260505003201 | 18 | 200 | 8.0 | 12.9 | 0.00 | 0.00 | 0.00 | 63 | 1016.0 |
| 20260505002700 | 18 | 194 | 6.4 | 11.3 | 0.00 | 0.00 | 0.00 | 62 | 1016.0 |
| 20260505002159 | 18 | 186 | 8.0 | 11.3 | 0.00 | 0.00 | 0.00 | 61 | 1016.0 |
| 20260505001659 | 18 | 188 | 3.2 | 6.4 | 0.00 | 0.00 | 0.00 | 61 | 1016.0 |
| 20260505001159 | 19 | 174 | 4.8 | 9.7 | 0.00 | 0.00 | 0.00 | 61 | 1016.0 |
| 20260505000659 | 19 | 205 | 4.8 | 8.0 | 0.00 | 0.00 | 0.00 | 60 | 1016.0 |
| 20260505000159 | 19 | 183 | 4.8 | 12.9 | 0.00 | 0.00 | 0.00 | 60 | 1016.0 |
| 20260504235659 | 19 | 176 | 9.7 | 12.9 | 0.00 | 0.00 | 0.00 | 60 | 1015.0 |
| 20260504235159 | 19 | 193 | 6.4 | 11.3 | 0.00 | 0.00 | 0.00 | 60 | 1015.0 |
| 20260504234659 | 20 | 207 | 4.8 | 9.7 | 0.00 | 0.00 | 0.00 | 59 | 1015.0 |
| 20260504234159 | 20 | 191 | 6.4 | 14.5 | 0.00 | 0.00 | 0.00 | 59 | 1015.0 |
| 20260504233700 | 20 | 189 | 8.0 | 12.9 | 0.00 | 0.00 | 0.00 | 58 | 1015.0 |
| 20260504233201 | 20 | 192 | 12.9 | 17.7 | 0.00 | 0.00 | 0.00 | 58 | 1015.0 |
| 20260504232659 | 20 | 179 | 11.3 | 17.7 | 0.00 | 0.00 | 0.00 | 57 | 1015.0 |
| 20260504232159 | 20 | 185 | 12.9 | 20.9 | 0.00 | 0.00 | 0.00 | 57 | 1015.0 |
| 20260504231702 | 20 | 190 | 9.7 | 17.7 | 0.00 | 0.00 | 0.00 | 57 | 1015.0 |
| 20260504231201 | 20 | 175 | 12.9 | 17.7 | 0.00 | 0.00 | 0.00 | 57 | 1015.0 |
| 20260504230659 | 21 | 203 | 11.3 | 14.5 | 0.00 | 0.00 | 0.00 | 57 | 1015.0 |
| 20260504230200 | 21 | 195 | 11.3 | 16.1 | 0.00 | 0.00 | 0.00 | 57 | 1015.0 |
| 20260504225659 | 21 | 171 | 9.7 | 12.9 | 0.00 | 0.00 | 0.00 | 57 | 1015.0 |
| 20260504225201 | 21 | 184 | 11.3 | 16.1 | 0.00 | 0.00 | 0.00 | 57 | 1015.0 |
| 20260504224701 | 21 | 182 | 6.4 | 11.3 | 0.00 | 0.00 | 0.00 | 57 | 1015.0 |
| 20260504224159 | 22 | 190 | 11.3 | 17.7 | 0.00 | 0.00 | 0.00 | 56 | 1015.0 |
| 20260504223659 | 22 | 186 | 9.7 | 14.5 | 0.00 | 0.00 | 0.00 | 56 | 1015.0 |
| 20260504223159 | 22 | 188 | 11.3 | 16.1 | 0.00 | 0.00 | 0.00 | 56 | 1015.0 |
| 20260504222705 | 22 | 198 | 11.3 | 16.1 | 0.00 | 0.00 | 0.00 | 55 | 1015.0 |
| 20260504222201 | 22 | 194 | 9.7 | 14.5 | 0.00 | 0.00 | 0.00 | 55 | 1015.0 |
| 20260504221701 | 22 | 203 | 11.3 | 16.1 | 0.00 | 0.00 | 0.00 | 56 | 1015.0 |
| 20260504221201 | 22 | 182 | 9.7 | 14.5 | 0.00 | 0.00 | 0.00 | 56 | 1015.0 |
| 20260504220659 | 22 | 183 | 11.3 | 20.9 | 0.00 | 0.00 | 0.00 | 55 | 1015.0 |
| 20260504220201 | 22 | 201 | 11.3 | 19.3 | 0.00 | 0.00 | 0.00 | 56 | 1015.0 |
| 20260504215700 | 22 | 170 | 9.7 | 17.7 | 0.00 | 0.00 | 0.00 | 56 | 1015.0 |
| 20260504215200 | 23 | 186 | 11.3 | 22.5 | 0.00 | 0.00 | 0.00 | 55 | 1015.0 |
| 20260504214701 | 23 | 175 | 8.0 | 14.5 | 0.00 | 0.00 | 0.00 | 56 | 1015.0 |
| 20260504214159 | 23 | 192 | 12.9 | 20.9 | 0.00 | 0.00 | 0.00 | 55 | 1015.0 |
| 20260504213701 | 23 | 188 | 8.0 | 12.9 | 0.00 | 0.00 | 0.00 | 56 | 1015.0 |
| 20260504213200 | 23 | 172 | 9.7 | 17.7 | 0.00 | 0.00 | 0.00 | 56 | 1015.0 |
| 20260504212701 | 23 | 189 | 11.3 | 14.5 | 0.00 | 0.00 | 0.00 | 57 | 1015.0 |
| 20260504212201 | 23 | 184 | 16.1 | 22.5 | 0.00 | 0.00 | 0.00 | 56 | 1015.0 |
| 20260504211710 | 23 | 195 | 12.9 | 20.9 | 0.00 | 0.00 | 0.00 | 55 | 1015.0 |
| 20260504211201 | 23 | 174 | 6.4 | 11.3 | 0.00 | 0.00 | 0.00 | 56 | 1015.0 |
| 20260504210701 | 23 | 185 | 11.3 | 27.4 | 0.00 | 0.00 | 0.00 | 55 | 1015.0 |
| 20260504210202 | 24 | 190 | 12.9 | 17.7 | 0.00 | 0.00 | 0.00 | 55 | 1015.0 |
| 20260504205659 | 24 | 183 | 9.7 | 16.1 | 0.00 | 0.00 | 0.00 | 55 | 1015.0 |
| 20260504205201 | 24 | 176 | 6.4 | 11.3 | 0.00 | 0.00 | 0.00 | 56 | 1015.0 |
| 20260504204701 | 24 | 196 | 9.7 | 12.9 | 0.00 | 0.00 | 0.00 | 55 | 1015.0 |
| 20260504204200 | 24 | 196 | 12.9 | 19.3 | 0.00 | 0.00 | 0.00 | 54 | 1015.0 |
| 20260504203659 | 24 | 183 | 6.4 | 11.3 | 0.00 | 0.00 | 0.00 | 56 | 1015.0 |
| 20260504203201 | 24 | 185 | 16.1 | 19.3 | 0.00 | 0.00 | 0.00 | 53 | 1015.0 |
| 20260504202701 | 24 | 180 | 11.3 | 16.1 | 0.00 | 0.00 | 0.00 | 54 | 1015.0 |
| 20260504202201 | 24 | 201 | 6.4 | 12.9 | 0.00 | 0.00 | 0.00 | 54 | 1015.0 |
| 20260504201703 | 24 | 198 | 12.9 | 17.7 | 0.00 | 0.00 | 0.00 | 54 | 1015.0 |
| 20260504201202 | 24 | 207 | 14.5 | 17.7 | 0.00 | 0.00 | 0.00 | 52 | 1015.0 |
| 20260504200659 | 25 | 192 | 6.4 | 9.7 | 0.00 | 0.00 | 0.00 | 45 | 1015.0 |
| 20260504200201 | 25 | 164 | 8.0 | 9.7 | 0.00 | 0.00 | 0.00 | 42 | 1015.0 |
| 20260504195659 | 26 | 193 | 12.9 | 17.7 | 0.00 | 0.00 | 0.00 | 41 | 1015.0 |
| 20260504195200 | 26 | 202 | 9.7 | 14.5 | 0.00 | 0.00 | 0.00 | 42 | 1015.0 |
| 20260504194701 | 25 | 188 | 11.3 | 17.7 | 0.00 | 0.00 | 0.00 | 42 | 1015.0 |
| 20260504194201 | 25 | 178 | 8.0 | 16.1 | 0.00 | 0.00 | 0.00 | 42 | 1015.0 |
| 20260504193702 | 25 | 168 | 11.3 | 17.7 | 0.00 | 0.00 | 0.00 | 41 | 1015.0 |
| 20260504193200 | 26 | 186 | 12.9 | 22.5 | 0.00 | 0.00 | 0.00 | 41 | 1015.0 |
| 20260504192701 | 26 | 229 | 8.0 | 12.9 | 0.00 | 0.00 | 0.00 | 41 | 1015.0 |
| 20260504192201 | 25 | 189 | 4.8 | 8.0 | 0.00 | 0.00 | 0.00 | 45 | 1015.0 |
| 20260504191701 | 25 | 159 | 9.7 | 11.3 | 0.00 | 0.00 | 0.00 | 43 | 1015.0 |
| 20260504191159 | 25 | 192 | 4.8 | 9.7 | 0.00 | 0.00 | 0.00 | 43 | 1016.0 |
| 20260504190700 | 25 | 167 | 9.7 | 17.7 | 0.00 | 0.00 | 0.00 | 41 | 1016.0 |
| 20260504190200 | 25 | 247 | 6.4 | 14.5 | 0.00 | 0.00 | 0.00 | 40 | 1016.0 |
| 20260504185701 | 25 | 220 | 9.7 | 12.9 | 0.00 | 0.00 | 0.00 | 43 | 1016.0 |
| 20260504185200 | 25 | 193 | 8.0 | 12.9 | 0.00 | 0.00 | 0.00 | 41 | 1016.0 |
| 20260504184707 | 25 | 197 | 6.4 | 9.7 | 0.00 | 0.00 | 0.00 | 43 | 1016.0 |
| 20260504184202 | 25 | 210 | 9.7 | 11.3 | 0.00 | 0.00 | 0.00 | 43 | 1016.0 |
| 20260504183700 | 25 | 216 | 8.0 | 14.5 | 0.00 | 0.00 | 0.00 | 42 | 1016.0 |
| 20260504183201 | 25 | 196 | 9.7 | 12.9 | 0.00 | 0.00 | 0.00 | 43 | 1016.0 |
| 20260504182702 | 25 | 208 | 6.4 | 9.7 | 0.00 | 0.00 | 0.00 | 43 | 1016.0 |
| 20260504182200 | 25 | 167 | 16.1 | 25.7 | 0.00 | 0.00 | 0.00 | 43 | 1016.0 |
| 20260504181700 | 25 | 221 | 11.3 | 14.5 | 0.00 | 0.00 | 0.00 | 44 | 1016.0 |
| 20260504181201 | 25 | 178 | 9.7 | 14.5 | 0.00 | 0.00 | 0.00 | 45 | 1016.0 |
| 20260504180701 | 24 | 186 | 4.8 | 8.0 | 0.00 | 0.00 | 0.00 | 45 | 1016.0 |
| 20260504180202 | 24 | 183 | 9.7 | 17.7 | 0.00 | 0.00 | 0.00 | 44 | 1016.0 |
| 20260504175701 | 24 | 179 | 11.3 | 19.3 | 0.00 | 0.00 | 0.00 | 44 | 1016.0 |
| 20260504175204 | 24 | 175 | 8.0 | 12.9 | 0.00 | 0.00 | 0.00 | 44 | 1017.0 |
| 20260504174702 | 24 | 208 | 6.4 | 9.7 | 0.00 | 0.00 | 0.00 | 46 | 1016.0 |
| 20260504174200 | 24 | 187 | 14.5 | 20.9 | 0.00 | 0.00 | 0.00 | 43 | 1017.0 |
| 20260504173701 | 24 | 179 | 6.4 | 11.3 | 0.00 | 0.00 | 0.00 | 44 | 1017.0 |
| 20260504173159 | 24 | 197 | 9.7 | 16.1 | 0.00 | 0.00 | 0.00 | 43 | 1017.0 |
| 20260504172703 | 24 | 206 | 9.7 | 14.5 | 0.00 | 0.00 | 0.00 | 44 | 1017.0 |
| 20260504172202 | 24 | 226 | 6.4 | 12.9 | 0.00 | 0.00 | 0.00 | 44 | 1017.0 |
| 20260504171704 | 23 | 263 | 9.7 | 14.5 | 0.00 | 0.00 | 0.00 | 46 | 1017.0 |
| 20260504171159 | 23 | 184 | 8.0 | 16.1 | 0.00 | 0.00 | 0.00 | 44 | 1017.0 |
| 20260504170700 | 23 | 170 | 12.9 | 17.7 | 0.00 | 0.00 | 0.00 | 44 | 1017.0 |
| 20260504170200 | 24 | 179 | 9.7 | 14.5 | 0.00 | 0.00 | 0.00 | 44 | 1017.0 |
| 20260504160216 | 22 | 220 | 9.7 | 14.5 | 0.00 | 0.00 | 0.00 | 52 | 1018.0 |
| 20260504150702 | 21 | 178 | 8.0 | 12.9 | 0.00 | 0.00 | 0.00 | 55 | 1018.0 |
| 20260504150202 | 21 | 213 | 9.7 | 14.5 | 0.00 | 0.00 | 0.00 | 56 | 1018.0 |
| 20260504141201 | 20 | 196 | 9.7 | 16.1 | 0.00 | 0.00 | 0.00 | 60 | 1018.0 |
| 20260504140703 | 20 | 172 | 4.8 | 9.7 | 0.00 | 0.00 | 0.00 | 62 | 1018.0 |
| 20260504140200 | 20 | 193 | 3.2 | 6.4 | 0.00 | 0.00 | 0.00 | 65 | 1018.0 |